User: anonymous   Login
Location: Unspecified
(0.0000°N, 0.0000°E)
Time: 18:11:21
(UTC+00:00)
Language:

POLYTECH UNIVERSE-4 - Orbit

View from above orbital plane
View from above orbital plane
View from above satellite
View from above satellite

Ground track
Ground track

The orbit is defined by the following mean orbital elements,

1 61747U          26145.51373638 +.00000000 +00000-0 +38483-3 0 00001
2 61747  97.3037  18.5230 0009157  15.0626 345.0894 15.44664959    03
Epoch (UTC): 25 May 2026 12:19:46
Eccentricity: 0.0009157
inclination: 97.3037°
perigee height: 426 km
apogee height: 439 km
right ascension of ascending node: 18.5230°
argument of perigee: 15.0626°
revolutions per day: 15.44664959
mean anomaly at epoch: 345.0894°

The dashed part of the orbit path shows where the satellite is in the earth's shadow,  

DLR